User: anonymous   Login
Location: Unspecified
(0.0000°N, 0.0000°E)
Time: 23:11:49
(UTC+01:00)
Language:

Cosmos 1703 - Orbit

View from above orbital plane
View from above orbital plane
View from above satellite
View from above satellite

Ground track
Ground track

The orbit data is extracted from the following two-line orbital elements,

1 16262U 85108A   17018.15096367 -.00000051  00000-0 -49866-5 0  9999
2 16262  82.4763  37.2849 0013225  73.8036 286.4647 15.10133459696259
Epoch (UTC): 18 January 2017 03:37:23
Eccentricity: 0.0013225
inclination: 82.4763°
perigee height: 526 km
apogee height: 545 km
right ascension of ascending node: 37.2849°
argument of perigee: 73.8036°
revolutions per day: 15.10133459
mean anomaly at epoch: 286.4647°
orbit number at epoch: 69625

The dashed part of the orbit path shows where the satellite is in the earth's shadow,  

DLR